Kezdőlap
METAR-TAF:

METAR-TAF

Repülőterek :

Knoxville Municipal Airport

Knoxville, Iowa, Amerikai Egyesült Államok

földrajzi szélesség: 41-18N, földrajzi hosszúság: 093-07W, magasság: 283 m

Jelenlegi meteorológiai megfigyelések

A jelentés 21 perccel ezelõtt készült, 13:35 UTC
Észak-északkeleti szél 3 kt
Hőmérséklet -1°C
Páratartalom 74%
Légköri nyomás 1027 hPa
Látótávolság: 16.1 km
Derült ég

METAR: KOXV 041335Z AUTO 03003KT 10SM CLR M01/M05 A3034 RMK AO2

Idő: 07:56 (13:56 UTC)


TAF: hiányzik

Meteorológiai megfigyelések és előrejelzések több, mint 4000 repülőtéren (METAR és TAF jelentéseket).

A térképen piros és sárga pontok jelzik az elérhető meteorológiai állomásokat.

Mozgassa az egeret a pont fölött, hogy megjelenjen az állomás neve.

Azután kattintson az időjárási megfigyelések és előrejelzések megtekintéséhez.

A térkép megváltoztatása: kattintson a fekete keresztel jelölt zöld gombra ráközelítéshez, a vonallal jelölt zöld gombra távolításhoz, vagy a zöld nyilakra a szomszédos térképek eléréséhez.


METAR-TAF: